Weather History for KBRL - August, 2013

Change the Weather History Date:

Friday, August 23, 2013

  Actual Average Record
Temperature  
Mean Temperature 75 °F 74 °F  
Max Temperature 86 °F 85 °F 101 °F (1948)
Min Temperature 63 °F 65 °F 50 °F (1984)
Degree Days  
Heating Degree Days 0 0  
Month to date heating degree days 3 0  
Since 1 June heating degree days 26 14  
Since 1 July heating degree days 11 1  
Cooling Degree Days 10 10  
Month to date cooling degree days 157 244  
Year to date cooling degree days 761 973  
Since 1 June cooling degree days 662 870  
Growing Degree Days 24 (Base 50)    
Moisture  
Dew Point 66 °F    
Average Humidity 78    
Maximum Humidity 100    
Minimum Humidity 55    
Precipitation  
Precipitation 0.00 in 0.14 in 2.73 in (2002)
Month to date precipitation T 3.13  
Year to date precipitation 27.06 26.11  
Sea Level Pressure  
Sea Level Pressure 30.11 in    
Wind  
Wind Speed 5 mph (East)    
Max Wind Speed 10 mph    
Max Gust Speed 15 mph    
Visibility 9 miles    
Events      
T = Trace of Precipitation, MM = Missing Value Source: NWS Daily Summary

Daily Weather History Graph

Daily Weather History Graph

Search for Another Location

Airport or City:

Trip Planner

Search our weather history database for the weather conditions in past years. The results will help you decide how hot, cold, wet, or windy it might be!

Date:

Astronomy

Aug. 23, 2013 Rise Set
Actual Time 6:22 AM CDT 7:50 PM CDT
Civil Twilight 5:54 AM CDT 8:19 PM CDT
Nautical Twilight 5:19 AM CDT 8:53 PM CDT
Astronomical Twilight 4:42 AM CDT 9:30 PM CDT
Moon 9:07 PM CDT (8/23) 9:19 AM CDT (8/23)
Length of Visible Light 14h 25m
Length of Day
13h 27m
Waning Gibbous, 91% of the Moon is Illuminated
Aug 23
Waning Gibbous
Aug 28
Last Quarter
Sep 5
New
Sep 12
First Quarter
Sep 19
Full

Hourly Weather History & Observations

Time (CDT) Temp. Heat Index Dew Point Humidity Pressure Visibility Wind Dir Wind Speed Gust Speed Precip Events Conditions
12:22 AM 71.6 °F - 68.0 °F 88% 30.10 in 10.0 mi East 5.8 mph - N/A   Scattered Clouds
12:49 AM 71.6 °F - 68.0 °F 88% 30.11 in 10.0 mi East 4.6 mph - N/A   Mostly Cloudy
12:53 AM 72.0 °F - 68.0 °F 87% 30.09 in 10.0 mi East 6.9 mph - N/A   Mostly Cloudy
1:53 AM 70.0 °F - 66.9 °F 90% 30.09 in 10.0 mi East 5.8 mph - N/A   Mostly Cloudy
2:06 AM 69.8 °F - 66.2 °F 88% 30.10 in 10.0 mi East 5.8 mph - N/A   Scattered Clouds
2:53 AM 70.0 °F - 66.9 °F 90% 30.09 in 10.0 mi Calm Calm - N/A   Scattered Clouds
3:53 AM 69.1 °F - 66.0 °F 90% 30.09 in 10.0 mi Calm Calm - N/A   Clear
4:53 AM 66.9 °F - 64.9 °F 93% 30.10 in 10.0 mi Calm Calm - N/A   Partly Cloudy
5:53 AM 64.9 °F - 64.0 °F 97% 30.11 in 9.0 mi Calm Calm - N/A   Clear
6:38 AM 62.6 °F - 62.6 °F 100% 30.13 in 1.5 mi Calm Calm - N/A   Clear
6:51 AM 64.4 °F - 62.6 °F 94% 30.13 in 3.0 mi Calm Calm - N/A   Clear
6:53 AM 64.9 °F - 63.0 °F 93% 30.12 in 4.0 mi Calm Calm - N/A   Clear
7:53 AM 71.1 °F - 68.0 °F 90% 30.12 in 8.0 mi NE 3.5 mph - N/A   Clear
8:53 AM 73.0 °F - 68.0 °F 84% 30.13 in 10.0 mi NE 3.5 mph - N/A   Clear
9:53 AM 75.9 °F - 68.0 °F 76% 30.13 in 10.0 mi Variable 3.5 mph - N/A   Clear
10:53 AM 79.0 °F - 68.0 °F 69% 30.14 in 10.0 mi ENE 6.9 mph - N/A   Clear
11:53 AM 81.0 °F 83.3 °F 66.9 °F 62% 30.13 in 10.0 mi SE 5.8 mph - N/A   Clear
12:53 PM 82.9 °F 85.4 °F 66.9 °F 58% 30.12 in 10.0 mi East 9.2 mph - N/A   Clear
1:53 PM 84.0 °F 86.3 °F 66.0 °F 55% 30.11 in 10.0 mi SSE 5.8 mph - N/A   Clear
2:53 PM 84.9 °F 87.6 °F 66.9 °F 55% 30.09 in 10.0 mi SE 6.9 mph - N/A   Clear
3:53 PM 86.0 °F 89.4 °F 68.0 °F 55% 30.08 in 10.0 mi East 6.9 mph - N/A   Clear
4:53 PM 84.9 °F 87.6 °F 66.9 °F 55% 30.08 in 10.0 mi East 8.1 mph - N/A   Clear
5:53 PM 84.0 °F 86.5 °F 66.9 °F 56% 30.07 in 10.0 mi East 6.9 mph - N/A   Clear
6:53 PM 82.0 °F 84.9 °F 68.0 °F 62% 30.07 in 10.0 mi East 6.9 mph - N/A   Clear
7:53 PM 79.0 °F - 68.0 °F 69% 30.08 in 10.0 mi East 4.6 mph - N/A   Clear
8:53 PM 75.9 °F - 68.0 °F 76% 30.10 in 10.0 mi East 4.6 mph - N/A   Clear
9:53 PM 73.9 °F - 66.0 °F 76% 30.12 in 10.0 mi East 5.8 mph - N/A   Clear
10:53 PM 72.0 °F - 64.9 °F 78% 30.12 in 10.0 mi East 4.6 mph - N/A   Clear
11:53 PM 71.1 °F - 64.9 °F 81% 30.12 in 10.0 mi East 3.5 mph - N/A   Clear